This demonstration page uses our WeatherBlox Daily Observations layout. Learn more.

Left ArrowRight Arrow

Hourly Observations for January 27, 2020

Temp ( °F °C ) Dew Point ( °F °C ) Humidity (%) Winds ( mph kmh ) Pressure ( in mb ) Visibility ( mi km ) Precip ( " mm )
12:53 am 00:53 Cloudy 46 7.8 37 2.8 71 71 Calm 29.97 1015 10 16 0.00 0.00
1:53 am 01:53 Cloudy 45 7.2 39 3.9 80 80 Calm 29.97 1015 10 16 0.00 0.00
2:53 am 02:53 Cloudy 45 7.2 39 3.9 80 80 Calm 29.96 1014 10 16 0.00 0.00
3:53 am 03:53 Cloudy with Light Rain 45 7.2 40 4.4 83 83 Calm 29.96 1015 10 16 0.00 0.00
4:53 am 04:53 Cloudy with Light Rain 45 7.2 41 5 86 86 Calm 29.94 1014 10 16 0.00 0.00
5:53 am 05:53 Cloudy 44 6.7 42 5.6 93 93 Calm 29.95 1014 10 16 0.00 0.00
6:07 am 06:07 Cloudy 44 6.7 42 5.6 93 93 Calm 29.96 1015 10 16 0.00 0.00
6:53 am 06:53 Cloudy 44 6.7 42 5.6 93 93 Calm 29.95 1014 10 16 0.00 0.00
7:53 am 07:53 Cloudy 45 7.2 42 5.6 90 90 Calm 29.96 1015 10 16 0.00 0.00
8:40 am 08:40 Cloudy 45 7.2 41 5 86 86 SW 3 6 29.99 1016 10 16 0.00 0.00
8:53 am 08:53 Cloudy 45 7.2 41 5 86 86 SSW 5 7 29.98 1015 10 16 0.00 0.00
9:53 am 09:53 Cloudy 46 7.8 42 5.6 86 86 SW 6 9 29.97 1015 10 16 0.00 0.00
10:53 am 10:53 Cloudy 48 8.9 43 6.1 83 83 Calm 29.97 1015 10 16 0.00 0.00
11:53 am 11:53 Cloudy 50 10 43 6.1 77 77 W 8 13 29.97 1015 10 16 0.00 0.00
12:18 pm 12:18 Cloudy 50 10 44 6.7 80 80 W 8 13 29.97 1015 10 16 0.00 0.00
12:53 pm 12:53 Cloudy 51 10.6 44 6.7 77 77 WNW 10 17 29.94 1014 10 16 0.00 0.00
1:32 pm 13:32 Cloudy 50 10 44 6.7 80 80 NW 7 11 29.94 1014 10 16 0.00 0.00
1:53 pm 13:53 Cloudy 50 10 44 6.7 80 80 NW 9 15 29.93 1013 10 16 0.00 0.00
2:40 pm 14:40 Cloudy 50 10 44 6.7 80 80 WNW 8 13 29.92 1013 10 16 0.00 0.00
2:53 pm 14:53 Cloudy 50 10 44 6.7 80 80 WNW 10 17 29.91 1013 10 16 0.00 0.00
3:53 pm 15:53 Cloudy 50 10 43 6.1 77 77 W 9 15 29.93 1013 10 16 0.00 0.00
4:53 pm 16:53 Cloudy 52 11.1 42 5.6 69 69 WNW 8 13 29.93 1013 10 16 0.00 0.00
5:53 pm 17:53 Cloudy 50 10 40 4.4 68 68 WNW 6 9 29.93 1014 10 16 0.00 0.00
6:00 pm 18:00 Sunny 50 10 40 4.4 68 68 WNW 6 9 29.95 1014 10 16 0.00 0.00
6:53 pm 18:53 Clear 48 8.9 40 4.4 74 74 WSW 3 6 29.96 1014 10 16 0.00 0.00
7:53 pm 19:53 Clear 45 7.2 40 4.4 83 83 SW 3 6 29.97 1015 10 16 0.00 0.00
8:53 pm 20:53 Clear 44 6.7 39 3.9 83 83 S 3 6 29.98 1015 10 16 0.00 0.00
9:53 pm 21:53 Clear 41 5 37 2.8 86 86 Calm 29.99 1016 10 16 0.00 0.00
10:53 pm 22:53 Clear 40 4.4 36 2.2 86 86 Calm 30.00 1016 10 16 0.00 0.00
11:53 pm 23:53 Clear 38 3.3 36 2.2 93 93 Calm 30.00 1016 10 16 0.00 0.00

Powered by AerisWeather